STARLINK-36471, 67324

Orbit data source: Space-Track

STARLINK-36471, 67324 is a payload satellite owned by SpaceX/Seattle (US) in LEO that was launched on Sun, 04 Jan 2026 UTC via an FALCON 9 launch vehicle from the Air Force Eastern Test Range (AFETR). Payload-class satellites include a variety of spacecraft equipped with specific instruments for various scientific and technological missions. These include communications satellites like Starlink; space stations such as the ISS; scientific satellites like the Hubble; Earth observation satellites from companies like Planet Labs, Umbra, and HawkEye 360; GPS; miniature CubeSats for education and research; and military/defense satellites.

Loading next visibility...
Identifier
67324, 2026-002V
Orbit
LEO
Country
Flag of USUS
Related business
Manufacturer
SpaceX/Seattle
Mission
Operational Commercial Communications
Bus & Motor
STARLINK V2MO, Unknown motor
Mass
575 kg wet, ~530 kg dry
Launch date (UTC)
2026-01-04 (5 months ago)
Launch vehicle
FALCON 9
Launch site
Air Force Eastern Test Range (AFETR)
Object type
Payload
Rocket body
Debris
Shape & HBR
Box + 2 Pan, 17.7 m
Radar Cross Section
36.964 m², Large (>1 m²)

Expand to show TLE details & history
Last TLE update: 16 hours ago

TLE from 16 hours ago
0 STARLINK-36471
1 67324U 26002V   26171.16805484  .00018842  00000-0  69193-3 0  9999
2 67324  43.0003 106.3472 0001182 283.0937  76.9783 15.27606246 26750
Epoch: 2026-06-20T04:01Z
TLE epoch observation values (Epoch: 2026-06-20T04:01:59.938Z)
Latitude
0.00002°
Longitude
137.46092°
Altitude
482.563 km
Speed
7.626 km/s
True Right ascension
07h 05m 23s
True Declination
0° 00' 00"
Sunlit
Object was in daylight at epoch
Visualization orbit readout
Latitude
Unknown
Longitude
Unknown
Altitude
Unknown
Speed
Unknown
Apparent Right ascension
Unknown
Apparent Declination
Unknown
Sunlit
N/A
Visualization observer readout
Local Sidereal Time
07:20:16
Azimuth
Unknown
Elevation
Unknown
Doppler factor
Unknown
Orbital elements
Apogee altitude
485.727 km
Perigee altitude
484.104 km
Semi-major axis
6,863.053 km
Eccentricity
0.00012
Inclination
43.0003°
RAAN
106.3472°
Arg. of periapsis
283.0937°
True anomaly
76.9915°
Mean anomaly
76.9783°
Eccentric anomaly
76.9849°
Mean motion
3.8174 °/min
Orbital period
94.31 mins
BSTAR
0.00069193
Loading maneuver chart data...
Computing Atmospheric mass density...
Loading historical data...
Loading historical data...
Loading historical data...
Loading historical data...
Loading historical data...
Loading historical data...
Loading historical data...

Documentation

Showing up to 5 results
|